Location: Bonny Doon Airfield
(37.0704°N, 122.1252°W)
Time: 22:47:38
(UTC-07:00)

BREEZE M DEB (TANK) - Visible Passes

Search period start: 22 May 2015 00:00
Search period end: 01 June 2015 00:00
Orbit: 317 x 13789 km, 49.6° (Epoch: 20 May)

Date Brightness Start Highest point End Pass type
(mag) Time Alt. Az. Time Alt. Az. Time Alt. Az.
22 May 9.2 00:27:09 10° WSW 02:24:17 71° N 03:26:16 10° E visible
22 May 8.7 21:44:03 10° SSW 22:45:35 85° SE 00:39:19 10° ENE visible
23 May 8.6 02:41:45 10° W 04:54:25 79° NNE 05:23:53 10° ESE visible
23 May 8.5 19:12:51 10° SSE 19:51:29 45° ESE 21:42:51 10° NE visible
23 May 9.2 23:42:32 10° WSW 01:26:41 73° NNW 02:42:56 10° E visible
24 May 7.9 05:13:47 10° WNW 06:59:08 70° SW 07:17:17 10° SSE visible
24 May 8.7 21:02:13 10° SSW 21:55:38 77° SE 23:53:53 10° ENE visible
25 May 8.7 01:52:27 10° W 04:05:49 76° NNE 04:41:45 10° ESE visible
25 May 8.5 18:33:30 10° SSE 19:08:06 37° ESE 20:53:54 10° NE visible
25 May 9.1 22:58:36 10° SW 00:28:10 77° NNW 01:59:04 10° ENE visible
26 May 8.0 04:19:34 10° WNW 06:15:39 79° SW 06:36:06 10° SSE visible
26 May 8.6 20:20:40 10° SSW 21:07:40 70° ESE 23:07:42 10° NE visible
27 May 8.8 01:04:36 10° W 03:14:41 73° NNE 03:59:11 10° ESE visible
27 May 9.0 22:15:13 10° SW 23:30:49 82° NNW 01:14:35 10° ENE visible
28 May 8.2 03:26:24 10° WNW 05:31:00 86° SW 05:54:33 10° SE visible
28 May 8.5 19:39:25 10° S 20:21:19 62° ESE 22:20:39 10° NE visible
29 May 9.0 00:17:58 10° W 02:20:31 72° N 03:16:09 10° E visible
29 May 8.9 21:32:15 10° SW 22:35:57 88° NW 00:29:27 10° ENE visible
30 May 8.3 02:34:34 10° WNW 04:44:56 87° NE 05:12:38 10° SE visible
30 May 8.4 18:58:28 10° S 19:36:12 53° ESE 21:32:36 10° NE visible
30 May 9.1 23:32:18 10° WSW 01:23:09 72° N 02:32:36 10° E visible
31 May 7.7 05:05:23 10° NW 06:45:57 59° WSW 07:04:41 10° S visible
31 May 8.8 20:49:39 10° SSW 21:43:49 86° SE 23:43:35 10° ENE visible
